Location: Unspecified
(0.0000°N, 0.0000°E)
Time: 03:47:11
(UTC+00:00)

A-11 Canister half - Pass Details

Date: 21 April 2026
Orbit: 1523 x 1685 km, 47.3° (Epoch: 13 May)

Event Time Altitude Azimuth Distance (km) Brightness Sun altitude
Rises 09:11:53 0° 307° (NW) 4,855 11.4 46.9°
Reaches altitude 10° 09:15:11 10° 302° (WNW) 3,849 10.9 47.7°
Maximum altitude 09:24:27 48° 231° (SW) 1,984 9.8 49.9°
Drops below altitude 10° 09:33:28 10° 158° (SSE) 3,736 11.2 52.0°
Sets 09:36:40 0° 153° (SSE) 4,703 11.6 52.8°
